Teterboro, NJ

10:43 PM EST on February 24, 2017 (GMT -0500)
Teterboro

Weather History for KTEB - October, 2011

Change the Weather History Date:

Monday, October 31, 2011

  Actual Average Record
Temperature  
Mean Temperature 41 °F -  
Max Temperature 52 °F 57 °F 75 °F (2004)
Min Temperature 30 °F 40 °F 30 °F (2011)
Degree Days  
Heating Degree Days 24    
Moisture  
Dew Point 35 °F    
Average Humidity 78    
Maximum Humidity 100    
Minimum Humidity 57    
Precipitation  
Precipitation 0.00 in - - ()
Snow  
Snow 0.00 in - - ()
Snow Depth 1.00 in    
Sea Level Pressure  
Sea Level Pressure 30.36 in    
Wind  
Wind Speed 1 mph (South)    
Max Wind Speed 7 mph    
Max Gust Speed -    
Visibility 9 miles    
Events Fog    
Averages and records for this station are not official NWS values.
T = Trace of Precipitation, MM = Missing Value Source: NWS Daily Summary

Daily Weather History Graph

Daily Weather History Graph

Search for Another Location

Airport or City:

Trip Planner

Search our weather history database for the weather conditions in past years. The results will help you decide how hot, cold, wet, or windy it might be!

Date:

Astronomy

Oct. 31, 2011 Rise Set
Actual Time 7:25 AM EDT 5:53 PM EDT
Civil Twilight 6:56 AM EDT 6:22 PM EDT
Nautical Twilight 6:24 AM EDT 6:54 PM EDT
Astronomical Twilight 5:52 AM EDT 7:26 PM EDT
Moon 12:31 PM EDT (10/31) 10:26 PM EDT (10/31)
Length of Visible Light 11h 25m
Length of Day
10h 28m
Waxing Crescent, 29% of the Moon is Illuminated
Oct 31
Waxing Crescent
Nov 2
First Quarter
Nov 10
Full
Nov 18
Last Quarter
Nov 25
New

Hourly Weather History & Observations

Time (EDT) Temp. Windchill Dew Point Humidity Pressure Visibility Wind Dir Wind Speed Gust Speed Precip Events Conditions
12:51 AM 34.0 °F - 32.0 °F 92% 30.35 in 10.0 mi Calm Calm - N/A   Clear
1:51 AM 33.1 °F - 32.0 °F 96% 30.36 in 7.0 mi Calm Calm - N/A Fog Shallow Fog
2:51 AM 32.0 °F - 30.9 °F 96% 30.37 in 8.0 mi Calm Calm - N/A Fog Shallow Fog
3:51 AM 33.1 °F - 32.0 °F 96% 30.37 in 6.0 mi Calm Calm - N/A Fog Shallow Fog
4:51 AM 33.1 °F - 30.9 °F 92% 30.37 in 10.0 mi Calm Calm - N/A Fog Shallow Fog
5:51 AM 30.2 °F - 30.2 °F 100% 30.38 in 10.0 mi Calm Calm - N/A Fog Shallow Fog
6:51 AM 32.0 °F - 30.0 °F 92% 30.38 in 10.0 mi Calm Calm - N/A Fog Shallow Fog
7:51 AM 33.1 °F - 30.0 °F 89% 30.40 in 10.0 mi Calm Calm - N/A Fog Shallow Fog
8:51 AM 35.1 °F 32.2 °F 30.9 °F 85% 30.40 in 10.0 mi North 3.5 mph - N/A   Clear
9:51 AM 37.9 °F - 32.0 °F 79% 30.41 in 7.0 mi Calm Calm - N/A   Clear
10:51 AM 42.1 °F - 34.0 °F 73% 30.40 in 6.0 mi Calm Calm - N/A   Haze
11:51 AM 46.9 °F - 36.0 °F 66% 30.40 in 10.0 mi Variable 4.6 mph - N/A   Clear
12:51 PM 50.0 °F - 37.9 °F 63% 30.37 in 10.0 mi North - - N/A   Clear
12:53 PM 50.0 °F - 37.4 °F 62% 30.37 in 10.0 mi South 6.9 mph - N/A   Clear
1:51 PM 51.1 °F - 37.0 °F 59% 30.34 in 10.0 mi SW 5.8 mph - N/A   Clear
2:51 PM 52.0 °F - 37.9 °F 59% 30.32 in 10.0 mi South 5.8 mph - N/A   Clear
3:51 PM 52.0 °F - 37.0 °F 57% 30.32 in 10.0 mi South 4.6 mph - N/A   Clear
4:51 PM 52.0 °F - 37.0 °F 57% 30.32 in 10.0 mi SSE 4.6 mph - N/A   Clear
5:51 PM 50.0 °F - 37.0 °F 61% 30.33 in 10.0 mi SSE 3.5 mph - N/A   Clear
6:51 PM 50.0 °F - 39.0 °F 66% 30.34 in 10.0 mi Calm Calm - N/A   Clear
7:51 PM 48.9 °F - 39.9 °F 71% 30.33 in 10.0 mi Calm Calm - N/A   Clear
8:51 PM 46.9 °F - 41.0 °F 80% 30.32 in 10.0 mi Calm Calm - N/A   Clear
9:51 PM 46.0 °F - 39.9 °F 79% 30.32 in 10.0 mi Calm Calm - N/A   Clear
10:51 PM 43.0 °F - 39.9 °F 89% 30.34 in 10.0 mi Calm Calm - N/A   Clear
11:51 PM 41.0 °F 39.0 °F 39.0 °F 93% 30.33 in 10.0 mi North 3.5 mph - N/A   Clear